sat.trackr.live / text

‹ back to catalog

STARLINK-11103 [DTC]

NORAD 59718 · 2024-088L

PAYLOAD ACTIVE UNKNOWN

§ Identity

Operator
Country
US
Launch date
2024-05-10
Launch site
AFWTR
Launch vehicle
Mass (kg)
RCS (m²)

Purposes: comms

External: N2YO · Heavens-Above · Gunter

§ Orbital elements

Epoch: 2026-09-21T20:18:35.905824Z

Period
91.74 min
Inclination
53.1594°
Eccentricity
0.0001104
Mean motion
15.69710171 rev/d
Perigee alt
359.0 km
Apogee alt
360.5 km
Semi-major
6,737.9 km
B*
6.6195e-6
RAAN
79.0791°
Arg perigee
102.0846°
Mean anomaly
258.0296°
Rev number
13,708

§ Raw data

STARLINK-11103 [DTC]1 59718U 24088L   26264.84624891  .00000213  00000+0  66195-5 0  99912 59718  53.1594  79.0791 0001104 102.0846 258.0296 15.69710171137088

JSON: /api/v1/satellites/59718 · /tle

For live sub-satellite position, see the globe view (requires WebGL).

§ Visibility from observer

Set your observer location to see the next 7 days of passes ≥ 10°. The values pass through the URL so the page stays shareable.

No JS? Fill the form by hand. The geolocation button needs JavaScript.